dalmacijanews.hr alexa rank chart, dalmacijanews.hr alexa rank daily changes

dalmacijanews.hr alexa rank chart, dalmacijanews.hr alexa rank daily changes

dalmacijanews.hr
Actual rank:
83 914

RANK HISTORY

Date Rank Diff
2017/01/18 83 914 +135
2017/01/17 83 779 -444
2017/01/16 84 223 -866
2017/01/15 85 089 -1 550
2017/01/14 86 639 +179
2017/01/13 86 460 -1 038
2017/01/12 87 498 -962
2017/01/11 88 460 +842
2017/01/10 87 618 -644
2017/01/09 88 262 -1 342
2017/01/08 89 604 -2 508
2017/01/07 92 112 -395
2017/01/06 92 507 -364
2017/01/05 92 871 -1 812
2017/01/04 94 683 -895
2017/01/03 95 578 +436
2017/01/02 95 142 -195
2017/01/01 95 337 +95
2016/12/31 95 242 +782
2016/12/30 94 460 -110
2016/12/29 94 570 -611
2016/12/28 95 181 -9
2016/12/27 95 190 -250
2016/12/26 95 440 -795
2016/12/25 96 235 -192
2016/12/24 96 427 +39
2016/12/23 96 388 +306
2016/12/22 96 082 -151
2016/12/21 96 233 -58
2016/12/20 96 291 -291
2016/12/19 96 582 -846
2016/12/18 97 428 -1 454
2016/12/17 98 882 -751
2016/12/16 99 633 +1 009
2016/12/15 98 624 +88
2016/12/14 98 536 -551
2016/12/13 99 087 +54
2016/12/12 99 033 -418
2016/12/11 99 451 -10
2016/12/10 99 461 -1 890
2016/12/09 101 351 -742
2016/12/08 102 093 -1 763
2016/12/07 103 856 -551
2016/12/06 104 407 -1 968
2016/12/05 106 375 -992
2016/12/04 107 367 -3 740
2016/12/02 111 107 -1 208
2016/12/01 112 315 -1 926
2016/11/30 114 241 -638
2016/11/29 114 879 +26
2016/11/28 114 853 -1 473
2016/11/27 116 326 -1 021
2016/11/26 117 347 -2 253
2016/11/25 119 600 -1 011
2016/11/24 120 611 -4 315
2016/11/23 124 926 -3 961
2016/11/19 128 887

WIDGET FOR YOUR SITE

DOMAINS WITH THE NEAREST RANK

Domain Rank
hdporn5.com 83 909
job-like.com 83 910
sassytube.com 83 911
govyi.com 83 912
onlyhgames.com 83 913
dalmacijanews.hr 83 914
alfiomanasseriilcerchio.tumblr.com 83 915
zabanshenas.com 83 916
hd-space.org 83 917
freeteenbutts.com 83 918
ebaydesc.com 83 919

DOMAINS WITH THE NEAREST RANK BY TLD .hr

Domain Rank
mojekrpice.hr 76 781
nn.hr 78 078
1klik.hr 79 953
oglasnik.hr 80 210
lidl.hr 83 496
dalmacijanews.hr 83 914
vrijeme.hr 85 368
aaiedu.hr 86 652
glasistre.hr 87 499
sancta-domenica.hr 89 572
htnet.hr 90 837